Kenner, LA

6:55 PM CDT on September 30, 2016 (GMT -0500)
New Orleans International

Weather History for KMSY - October, 2011

Change the Weather History Date:

Sunday, October 16, 2011

  Actual Average Record
Temperature  
Mean Temperature 74 °F -  
Max Temperature 87 °F 79 °F 91 °F (2015)
Min Temperature 62 °F 60 °F 45 °F (1987)
Cooling Degree Days 10    
Growing Degree Days 24 (Base 50)    
Moisture  
Dew Point 60 °F    
Average Humidity 66    
Maximum Humidity 90    
Minimum Humidity 32    
Precipitation  
Precipitation 0.00 in - - ()
Sea Level Pressure  
Sea Level Pressure 30.07 in    
Wind  
Wind Speed 3 mph (ENE)    
Max Wind Speed 9 mph    
Max Gust Speed 17 mph    
Visibility 10 miles    
Events Fog    
Averages and records for this station are not official NWS values.
T = Trace of Precipitation, MM = Missing Value Source: NWS Daily Summary

Daily Weather History Graph

Daily Weather History Graph

Search for Another Location

Airport or City:

Trip Planner

Search our weather history database for the weather conditions in past years. The results will help you decide how hot, cold, wet, or windy it might be!

Date:

Astronomy

Oct. 16, 2011 Rise Set
Actual Time 7:03 AM CDT 6:29 PM CDT
Civil Twilight 6:39 AM CDT 6:53 PM CDT
Nautical Twilight 6:11 AM CDT 7:21 PM CDT
Astronomical Twilight 5:43 AM CDT 7:48 PM CDT
Moon 9:33 PM CDT (10/16) 11:02 AM CDT (10/16)
Length of Visible Light 12h 14m
Length of Day
11h 26m
Waning Gibbous, 82% of the Moon is Illuminated
Oct 16
Waning Gibbous
Oct 19
Last Quarter
Oct 26
New
Nov 2
First Quarter
Nov 10
Full

Hourly Weather History & Observations

Time (CDT) Temp. Heat Index Dew Point Humidity Pressure Visibility Wind Dir Wind Speed Gust Speed Precip Events Conditions
12:53 AM 64.9 °F - 60.1 °F 84% 30.10 in 10.0 mi Calm Calm - N/A   Clear
1:53 AM 64.0 °F - 60.1 °F 87% 30.09 in 10.0 mi Calm Calm - N/A   Clear
2:53 AM 63.0 °F - 57.9 °F 84% 30.09 in 9.0 mi Calm Calm - N/A   Clear
3:53 AM 63.0 °F - 59.0 °F 87% 30.09 in 10.0 mi Calm Calm - N/A   Clear
4:53 AM 62.1 °F - 59.0 °F 90% 30.10 in 9.0 mi Calm Calm - N/A   Clear
5:53 AM 62.1 °F - 57.9 °F 86% 30.11 in 8.0 mi Calm Calm - N/A   Clear
6:53 AM 66.0 °F - 63.0 °F 90% 30.11 in 8.0 mi NNE 3.5 mph - N/A Fog Shallow Fog
7:53 AM 71.1 °F - 66.9 °F 87% 30.12 in 10.0 mi NNE 5.8 mph - N/A Fog Shallow Fog
8:53 AM 73.9 °F - 66.9 °F 79% 30.12 in 10.0 mi NE 9.2 mph - N/A   Clear
9:53 AM 75.9 °F - 66.0 °F 71% 30.13 in 10.0 mi NE 8.1 mph - N/A   Clear
10:53 AM 79.0 °F - 64.9 °F 62% 30.13 in 10.0 mi NNE 6.9 mph - N/A   Clear
11:53 AM 81.0 °F 83.0 °F 66.0 °F 60% 30.12 in 10.0 mi NNE 9.2 mph - N/A   Clear
12:53 PM 82.9 °F 85.0 °F 66.0 °F 56% 30.09 in 10.0 mi NNE 8.1 mph - N/A   Clear
1:53 PM 84.9 °F 86.1 °F 64.0 °F 49% 30.06 in 10.0 mi North 6.9 mph - N/A   Clear
2:53 PM 87.1 °F 86.5 °F 59.0 °F 39% 30.03 in 10.0 mi SE 5.8 mph - N/A   Clear
3:53 PM 87.1 °F 85.9 °F 57.0 °F 36% 30.03 in 10.0 mi SSE 8.1 mph 17.3 mph N/A   Clear
4:53 PM 84.9 °F - 52.0 °F 32% 30.03 in 10.0 mi SE 9.2 mph - N/A   Clear
5:53 PM 82.0 °F - 50.0 °F 33% 30.02 in 10.0 mi SE 8.1 mph - N/A   Clear
6:53 PM 78.1 °F - 53.1 °F 42% 30.02 in 10.0 mi SE 3.5 mph - N/A   Clear
7:53 PM 75.9 °F - 57.0 °F 52% 30.04 in 10.0 mi East 3.5 mph - N/A   Clear
8:53 PM 73.9 °F - 59.0 °F 59% 30.05 in 10.0 mi East 3.5 mph - N/A   Clear
9:53 PM 71.1 °F - 60.1 °F 68% 30.05 in 10.0 mi East 4.6 mph - N/A   Clear
10:28 PM 69.8 °F - 60.8 °F 73% 30.04 in 10.0 mi ESE 3.5 mph - N/A   Partly Cloudy
10:53 PM 69.8 °F - 60.8 °F 73% 30.04 in 10.0 mi Calm Calm - N/A   Partly Cloudy
11:53 PM 66.2 °F - 60.8 °F 83% 30.03 in 10.0 mi Calm Calm - N/A   Partly Cloudy